Regional Weather Roundup
Issued by NWS

Home | Current Version | Previous Version | Graphics & Text | Print | Product List | Glossary On
Versions: 1 2 3 4 5 6 7 8 9 10 11 12 13 14 15 16 17 18 19 20 21 22 23 24 25 26 27 28 29 30 31 32 33 34 35 36 37 38 39 40 41 42 43 44 45 46 47 48 49 50
000
ASUS43 KLMK 260110
RWRKY
KENTUCKY REGIONAL WEATHER ROUNDUP
NATIONAL WEATHER SERVICE LOUISVILLE KY
800 PM EST SUN JAN 25 2015

NOTE "FAIR" INDICATES FEW OR NO CLOUDS BELOW 12,000 FEET
WITH NO SIGNIFICANT WEATHER AND/OR OBSTRUCTIONS TO VISIBILITY.

KYZ001>023-026-027-061>063-070>075-260200-
WESTERN AND SOUTH CENTRAL KENTUCKY

CITY           SKY/WX    TMP DP  RH WIND       PRES   REMARKS
PADUCAH        LGT RAIN  44  41  89 W14       29.73R
HENDERSON      CLOUDY    39  37  93 W3        29.68R
OWENSBORO      LGT RAIN  40  40 100 CALM      29.68R
HOPKINSVILLE   MIX PCPN  43  41  93 SW16      29.69S
BOWLING GREEN  LGT RAIN  39  35  86 W9G23     29.69R WCI  33
GLASGOW        LGT RAIN  43  43 100 W6        29.66S
$$

KYZ024-025-028>034-038-045-046-053-260200-
NORTH CENTRAL KENTUCKY

CITY           SKY/WX    TMP DP  RH WIND       PRES   REMARKS
LOUISVILLE/SDF LGT RAIN  42  40  92 N7        29.67R FOG
LOUISVILLE/LOU LGT RAIN  41  39  93 N5        29.67S
FORT KNOX      CLOUDY    39  39 100 N2        29.65R FOG
$$

KYZ035>037-039>044-047>052-055>060-089>105-260200-
NORTHEAST KENTUCKY

CITY           SKY/WX    TMP DP  RH WIND       PRES   REMARKS
LEXINGTON      LGT RAIN  41  39  93 SE3       29.67S
COVINGTON      RAIN      39  37  92 NE7       29.68R FOG     WCI  34
FRANKFORT      RAIN      39  38  96 E5        29.66S FOG
$$

KYZ054-064>069-076>088-106>120-260200-
SOUTHEAST KENTUCKY

CITY           SKY/WX    TMP DP  RH WIND       PRES   REMARKS
JACKSON        LGT RAIN  43  37  79 CALM      29.68S
LONDON         CLOUDY    47  30  51 S5        29.67R
SOMERSET       DRIZZLE   45  37  76 W13       29.70R
MIDDLESBORO    CLOUDY    49  32  51 S6        29.70S
MONTICELLO     CLOUDY    46  42  86 SW6       29.71R
$$



USA.gov is the U.S. government's official web portal to all federal, state and local government web resources and services.